Regional Weather Roundup
Issued by NWS

Home | Current Version | Previous Version | Graphics & Text | Print | Product List | Glossary On
Versions: 1 2 3 4 5 6 7 8 9 10 11 12 13 14 15 16 17 18 19 20 21 22 23 24 25 26 27 28 29 30 31 32 33 34 35 36 37 38 39 40 41 42 43 44 45 46 47 48 49 50
000
ASUS45 KTFX 300910
RWRMT
MONTANA REGIONAL WEATHER ROUNDUP
NATIONAL WEATHER SERVICE GREAT FALLS MT
300 AM MDT TUE AUG 30 2016

NOTE: "FAIR" INDICATES FEW OR NO CLOUDS BELOW 12000 FEET WITH NO
SIGNIFICANT WEATHER AND/OR OBSTRUCTIONS TO VISIBILITY.

MTZ001>007-043-301000-
WEST OF THE DIVIDE

CITY           SKY/WX    TMP DP  RH WIND       PRES   REMARKS
KALISPELL      CLEAR     58  48  69 N7        30.04R
MISSOULA       PTCLDY    61  40  45 NE3       30.08S
BUTTE          CLOUDY    52  33  48 SE5       30.23R
MULLAN PASS    CLEAR     67  32  27 CALM      30.22S
DEER LODGE       N/A     57  36  44 W6        30.19S
EUREKA           N/A     52  50  93 CALM      30.06R
HAMILTON         N/A     61  37  41 CALM      30.10R
LIBBY            N/A     54  45  71 CALM      30.04R
PLAINS           N/A     53  43  69 CALM      30.04S
RONAN            N/A     51  44  77 CALM      30.09R
THOMPSON FALLS   N/A     54  43  66 CALM      30.08R
$$

MTZ008-052>055-301000-
SOUTHWEST MONTANA

CITY           SKY/WX    TMP DP  RH WIND       PRES   REMARKS
BOZEMAN        PTCLDY    61  45  55 W3        30.16R
DILLON         PTCLDY    61  31  32 SW12      30.19S
W YELLOWSTONE  CLOUDY    37  23  56 CALM      30.36S
ENNIS          CLEAR     61  25  25 SE9       30.27S
THREE FORKS      N/A     56  27  33 CALM      30.13R
TWIN BRIDGES     N/A     62  29  29 N6        30.15S
$$

MTZ009-010-012-014-046-048-049-054-301000-
EAST SLOPES AND CENTRAL MONTANA

CITY           SKY/WX    TMP DP  RH WIND       PRES   REMARKS
CUT BANK       PTCLDY    55  47  74 W9        30.13R
GREAT FALLS    CLOUDY    67  43  41 E3        30.10F
HELENA         CLOUDY    66  40  38 W8        30.13R
CHOTEAU          N/A     57  48  72 NW5       30.16R
CONRAD           N/A     54  49  83 N2        30.14R
$$

MTZ011-013-016-021-045-047-050-051-301000-
NORTH CENTRAL MONTANA

CITY           SKY/WX    TMP DP  RH WIND       PRES   REMARKS
HAVRE          CLOUDY    66  50  56 SW5       30.16R
LEWISTOWN      MOCLDY    70  46  42 E6        30.14F
N BAR RANCH      N/A     59  45  58 NW5       30.19F
CHINOOK          N/A     64  50  59 CALM      30.15R
$$

MTZ017>020-022>027-061-062-301000-
NORTHEAST MONTANA

CITY           SKY/WX    TMP DP  RH WIND       PRES   REMARKS
GLASGOW        CLEAR     61  44  53 E10       30.13S
JORDAN           N/A     67  47  48 E8        30.13S
SIDNEY         CLEAR     57  45  64 CALM      30.20S
WOLF POINT     CLEAR     57  44  62 E3        30.17S
PLENTYWOOD       N/A     61  43  51 E7        30.20S
POPLAR           N/A     57  45  62 NE7       30.18S
SCOBEY           N/A     57  40  53 CALM      30.17S
$$

MTZ028>42-056>058-301000-
SOUTHCENTRAL AND SOUTHEAST MONTANA

CITY           SKY/WX    TMP DP  RH WIND       PRES   REMARKS
BAKER          CLEAR     61  49  64 E18       30.24S
BILLINGS       PTCLDY    66  49  54 W6        30.11F
LIVINGSTON     CLOUDY    54  44  69 CALM      30.19S
MILES CITY     CLEAR     70  45  40 SE21      30.13F
EKALAKA          N/A     62  48  60 SE12      30.19S
FORSYTH          N/A     64  46  52 NE6       30.12R
LAUREL           N/A     59  45  59 CALM      30.09F
ROUNDUP          N/A     64  46  52 W5        30.03R
$$

REGIONAL REPORTS...DAKOTAS

CITY           SKY/WX    TMP DP  RH WIND       PRES   REMARKS
WILLISTON      CLEAR     53  42  66 CALM      30.21S
MINOT          CLEAR     54  47  77 S3        30.23S
DICKINSON      CLEAR     53  46  77 SE10      30.24S
CROSBY           N/A     50  45  81 E3        30.24S
WATFORD CITY     N/A     54  41  62 SE3       30.23S
BISMARCK       CLEAR     52  48  86 NE3       30.26R
GRAND FORKS    CLEAR     49  46  90 CALM      30.23R
FARGO          CLEAR     53  49  86 SW3       30.23R
BUFFALO SD       N/A     61  52  72 E7        30.20S
RAPID CITY     CLOUDY    64  62  93 N5        30.26S
$$

REGIONAL REPORTS...WYOMING/IDAHO/WASHINGTON

CITY           SKY/WX    TMP DP  RH WIND       PRES   REMARKS
GILLETTE       CLEAR     65  57  75 S17       30.25S
SHERIDAN       CLEAR     55  45  68 NW3       30.18S
BUFFALO WY     CLEAR     62  43  49 SE6       30.28S
CODY           CLOUDY    64  39  39 SW7       30.24S
YELLOWSTONE LA   N/A     41  33  73 NW3       30.46S
IDAHO FALLS    CLOUDY    51  39  63 N5        30.19S
SALMON         CLOUDY   N/A N/A N/A MISG        N/A
BOISE          MOCLDY    72  32  23 SE8       29.98F
SPOKANE        PTCLDY    67  39  35 S5        29.98S
$$

REGIONAL REPORTS...ALBERTA

CITY           SKY/WX    TMP DP  RH WIND       PRES   REMARKS
EDMONTON       PTCLDY    50  45  81 E7        30.18R
CALGARY        PTCLDY    55  50  82 SW6       30.12F
LETHBRIDGE     PTCLDY    55  52  88 NE5       30.12F
MEDICINE HAT   MOCLDY    63  55  77 E8        30.14F
WATERTON GATE    N/A     43  41  93 SW3         N/A
CARDSTON         N/A     52  50  93 W1          N/A
MILK RIVER       N/A     54  50  87 N6          N/A
ONEFOUR          N/A     64  52  63 NE21        N/A
$$

REGIONAL REPORTS...SASKATCHEWAN

CITY           SKY/WX    TMP DP  RH WIND       PRES   REMARKS
SWIFT CURRENT  PTCLDY    52  46  82 E9        30.20R
REGINA         PTCLDY    54  45  71 E8        30.23S
SASKATOON      PTCLDY    46  45  93 NE5       30.27S
CYPRESS HILLS    N/A     59  50  72 N8          N/A
VAL MARIE        N/A     54  41  62 NE5         N/A
ROCKGLEN         N/A     55  41  58 SE9         N/A
ASSINIBOIA       N/A     52  45  76 E6          N/A
$$



USA.gov is the U.S. government's official web portal to all federal, state and local government web resources and services.